User: anonymous   Login
Location: Caltech
(34.1382°N, 118.1253°W)
Time: 03:34:54
(UTC-07:00)
Language:

Cosmos 2219 - Orbit

View from above orbital plane
View from above orbital plane
View from above satellite
View from above satellite

Ground track
Ground track

The orbit data is extracted from the following two-line orbital elements,

1 22219U 92076A   18109.88016556 -.00000260 +00000-0 -11263-3 0  9994
2 22219 071.0579 277.0765 0020445 278.6136 081.2670 14.13623308311234
Epoch (UTC): 19 April 2018 21:07:26
Eccentricity: 0.0020445
inclination: 71.0579°
perigee height: 832 km
apogee height: 862 km
right ascension of ascending node: 277.0765°
argument of perigee: 278.6136°
revolutions per day: 14.13623308
mean anomaly at epoch: 81.2670°
orbit number at epoch: 31123

The dashed part of the orbit path shows where the satellite is in the earth's shadow,  

DLR